Regional Weather Roundup
Issued by NWS

Home | Current Version | Previous Version | Text Only | Print | Product List | Glossary Off
Versions: 1 2 3 4 5 6 7 8 9 10 11 12 13 14 15 16 17 18 19 20 21 22 23 24 25 26 27 28 29 30 31 32 33 34 35 36 37 38 39 40 41 42 43 44 45 46 47 48 49 50

000
ASUS43 KLMK 212202
RWRKY
KENTUCKY REGIONAL WEATHER ROUNDUP
NATIONAL WEATHER SERVICE LOUISVILLE KY
600 PM EDT FRI JUL 21 2017

NOTE "FAIR" INDICATES FEW OR NO CLOUDS BELOW 12,000 FEET
WITH NO SIGNIFICANT WEATHER AND/OR OBSTRUCTIONS TO VISIBILITY.

KYZ001>023-026-027-061>063-070>075-212300-
WESTERN AND SOUTH CENTRAL KENTUCKY

CITY           SKY/WX    TMP DP  RH WIND       PRES   REMARKS
PADUCAH        FAIR      95  75  52 SW8       29.94F HX 107
HENDERSON      FAIR      94  78  60 SW7       29.94S HX 110
OWENSBORO      FAIR      94  77  57 S9        29.94F HX 108
HOPKINSVILLE   FAIR      93  74  54 W9        29.96F HX 103
BOWLING GREEN  FAIR      95  71  45 SW6       29.96F HX 102
GLASGOW        NOT AVBL
$$

KYZ024-025-028>034-038-045-046-053-212300-
NORTH CENTRAL KENTUCKY

CITY           SKY/WX    TMP DP  RH WIND       PRES   REMARKS
LOUISVILLE/SDF FAIR      96  73  47 NW9       29.95F HX 105
LOUISVILLE/LOU FAIR      94  74  52 SW9       29.95F HX 104
FORT KNOX      FAIR      93  73  51 S8        29.96F HX 101
$$

KYZ035>037-039>044-047>052-055>060-089>105-212300-
NORTHEAST KENTUCKY

CITY           SKY/WX    TMP DP  RH WIND       PRES   REMARKS
LEXINGTON      FAIR      93  70  46 W12       29.99F HX  99
COVINGTON      FAIR      90  79  70 CALM      29.97F HX 106
FRANKFORT      FAIR      92  73  53 W7        29.96F HX 100
$$

KYZ054-064>069-076>088-106>120-212300-
SOUTHEAST KENTUCKY

CITY           SKY/WX    TMP DP  RH WIND       PRES   REMARKS
JACKSON        PTSUNNY   91  72  53 VRB3      30.02S HX  98
LONDON         FAIR      92  69  47 NW7       30.01F HX  97
SOMERSET       FAIR      90  64  43 W7        30.01F HX  91
MIDDLESBORO    FAIR      92  71  50 CALM      30.02S HX  99
MONTICELLO     FAIR      92  76  59 W13       30.02F HX 104
$$





USA.gov is the U.S. government's official web portal to all federal, state and local government web resources and services.